Lid_Strength_Index
2 2 2 6 6 1 1 1 1 0 0 1 1 1 1 0 0 -0 -1 -1 -1 -1 -1 -1 -1 -1 -0 -0 -0 -0 0 1 -0 1 1 0 -1 -0 -0 -1 -1 -1 -1
3 3 2 1 1 1 1 1 1 1 0 0 0 0 0 0 -0 -0 -1 -1 -1 -1 -1 -1 -0 -1 -0 -0 -0 0 1 0 0 2 1 3 2 -0 -0 -0 -0 -0 -1
4 3 3 2 2 1 1 1 1 1 0 -0 0 0 0 0 1 0 0 -0 -1 -1 -1 -1 -1 -1 -1 0 -0 -0 0 2 1 0 1 3 3 2 -0 0 -0 -0 -0
3 3 3 3 2 2 1 0 0 1 0 -0 1 1 2 2 1 1 0 -0 -1 -1 -1 -1 -1 -1 -1 -0 -0 -0 -0 0 2 1 -0 0 1 3 3 1 -0 -1 -0
3 3 3 3 2 1 1 0 0 1 0 0 0 1 1 1 1 1 0 -0 -0 -1 -1 -1 -1 -1 -0 -1 -0 -0 0 0 1 1 1 1 1 1 2 4 2 0 -1
4 3 2 2 2 1 1 1 0 0 0 1 0 1 1 1 1 1 1 1 0 -0 -1 -1 -1 -1 -1 -0 -0 -0 -0 -0 0 0 1 1 2 2 2 3 3 3 0
4 4 3 3 2 2 2 1 1 1 0 1 1 1 1 1 1 1 1 1 1 1 0 -0 -0 -0 -1 -1 -1 -0 -0 -0 0 0 1 0 0 0 1 2 2 3 1
4 3 3 3 2 2 2 1 1 1 1 1 1 1 0 1 1 1 1 1 1 0 -1 -0 -1 -1 -1 -0 -0 -0 -0 -0 0 0 0 0 0 0 0 1 2 3 2
5 4 3 2 2 2 2 1 1 1 1 1 1 1 0 0 1 -0 -0 0 -0 -0 -0 -0 -0 -0 -0 -0 -1 0 0 -0 -0 -0 -0 0 0 -0 -0 0 1 2 4
5 4 3 3 2 2 1 1 1 1 1 1 1 1 0 0 0 -0 0 0 -0 -0 -0 -0 -0 -0 -0 -0 -0 -0 -0 0 0 0 0 0 0 0 -0 0 0 1 2
5 4 3 3 2 1 1 1 1 1 1 1 1 1 1 0 0 0 0 0 -0 -0 -0 -0 -0 0 -0 -0 0 0 -0 1 0 -0 0 0 -0 0 0 0 0 1 1
5 4 4 3 3 2 2 2 1 1 1 1 0 1 1 0 1 1 0 -0 0 -0 -0 0 0 0 0 0 0 1 0 1 1 1 0 0 0 0 -0 0 0 1 0
4 4 3 3 3 2 2 2 1 1 1 1 1 1 1 1 1 1 1 -0 0 0 -0 0 1 1 0 0 0 0 1 1 0 0 0 0 0 1 0 0 1 1 0
4 4 3 3 3 2 2 2 1 1 1 1 1 1 1 1 0 0 0 1 0 0 0 1 0 0 1 0 0 0 1 1 1 0 -0 0 0 0 0 0 0 0 0
6 4 4 4 4 3 2 2 1 1 1 1 1 1 0 0 0 0 0 0 1 2 2 1 1 0 0 0 1 1 1 1 1 0 0 -0 -0 0 0 0 0 0 1
6 4 4 4 4 3 3 2 2 2 1 1 1 1 0 0 1 1 1 0 0 0 1 2 2 1 1 4 5 3 2 1 1 2 1 -0 1 1 1 2 1 0 0
5 5 5 4 4 3 2 2 2 1 1 1 1 1 1 1 1 1 1 1 1 1 1 1 2 2 1 6 7 5 0 1 2 1 1 1 1 0 -0 2 3 3 3
5 5 4 4 3 2 2 2 2 2 3 2 2 1 1 1 1 1 1 1 1 1 1 1 1 2 2 6 8 7 0 0 1 0 0 0 -0 -0 -0 0 0 -0 -0
4 3 3 2 2 1 1 2 2 2 2 3 2 2 2 1 1 1 1 1 1 1 1 1 1 1 2 6 8 7 1 1 1 0 0 -0 0 3 6 0 1 0 0
3 3 2 2 2 2 1 2 3 3 3 2 2 1 1 2 1 1 1 0 0 1 1 1 1 2 1 5 7 8 1 2 1 1 0 5 1 8 8 0 1 1 1
3 2 3 3 3 2 2 3 3 4 3 2 2 2 2 1 0 0 0 1 1 1 1 1 1 1 1 3 7 8 1 1 2 2 1 1 8 9 9 6 0 1 0
4 3 4 4 3 3 4 5 5 4 3 3 3 3 2 2 2 1 1 1 1 1 2 2 2 2 1 4 8 9 7 4 2 2 1 1 7 8 9 8 6 8 5
6 5 6 6 5 5 5 6 6 5 5 6 5 4 3 3 2 2 1 1 1 2 2 2 4 4 2 2 7 8 9 8 4 2 4 5 8 8 8 9 8 9 1
8 8 8 8 8 8 7 8 8 7 8 8 8 6 5 5 4 3 2 3 2 2 2 2 3 4 4 4 4 4 4 8 7 6 4 4 6 6 5 3 5 1 0
9 8 9 9 9 9 9 9 9 9 10 10 9 9 8 7 6 5 4 3 2 3 3 3 3 3 4 4 5 5 4 3 4 4 3 4 3 3 3 2 2 1 0
8 9 10 10 11 11 11 11 10 11 11 11 11 10 9 9 8 7 6 6 6 6 7 7 5 3 6 7 8 8 8 8 8 4 4 3 3 4 4 3 3 2 2